Weather WX

World > North America > United States > Ohio

Shawnee Hills, Ohio Regional Weather

Lat: 39.65N, Lon: 83.78W
Wx Zone: OHZ046
Warning FLW WEATHER ALERT - FLASH FLOOD WATCH (More Info. Click Here) Warning
Feedback

Shawnee Hills, OH Regional Weather

Expires:201906172200;;646266
ASUS41 KCLE 172102
RWRCLE
OHIO REGIONAL WEATHER ROUNDUP
NATIONAL WEATHER SERVICE CLEVELAND, OH
500 PM EDT MON JUN 17 2019

NOTE: "FAIR" INDICATES FEW OR NO CLOUDS BELOW 12,000 FEET WITH NO
SIGNIFICANT WEATHER AND/OR OBSTRUCTIONS TO VISIBILITY.


OHZ036-037-039>041-045>050-054>059-063>069-073>076-082>088-172200-
  CENTRAL AND SOUTHEAST OHIO
  
CITY           SKY/WX    TMP DP  RH WIND       PRES   REMARKS
COLUMBUS       CLOUDY    76  66  71 CALM      29.96F                  
OSU AIRPORT    FAIR      76  67  73 CALM      29.96F                  
BOLTON FIELD   MOSUNNY   75  66  73 CALM      29.98F                  
RICKENBACK AFB PTSUNNY   76  67  73 NW3       29.96F                  
NEWARK         PTSUNNY   79  68  69 SW5       29.96F                  
MARION         PTSUNNY   73  67  81 NE6       29.98F                  
LANCASTER      PTSUNNY   77  68  73 SW5       29.97F                  
ZANESVILLE     PTSUNNY   77  67  71 S6        29.97F                  
NEW PHILLY     NOT AVBL                                               
$$
  

SKY/WX - Weather  TMP - Temperature  DP - Dew Point  RH - Relative Humidity
WIND - Wind Direction/Speed PRES - Barometric Pressure VSB - Visibility
WCI - Wind Chill Index E13G22 Wind - East Wind 13 mph/Gusts of 22 mph